,,,PA_Meas_PMT16A,,PR_Meas_QMR101_102,,RH_Meas_QMH101,,SR_Meas_QMS101,,TA_Meas_QMH101,,GenWind,,GenWind,
date,time,status,PA,status,PR,status,RH,status,SR,status,TA,status,DirAvg,status,SpdAvg,
2009-08-17, 00:00:04,VALID,1004.37,VALID,0,VALID,95.1932,VALID,0,VALID,23.8398,VALID,345,VALID,0,
2009-08-17, 00:01:04,VALID,1004.4,VALID,0,VALID,95.2237,VALID,0,VALID,23.8185,VALID,345,VALID,0,
2009-08-17, 00:02:04,VALID,1004.4,VALID,0,VALID,95.2084,VALID,0,VALID,23.8593,VALID,345,VALID,0,
2009-08-17, 00:03:04,VALID,1004.4,VALID,0,VALID,95.2161,VALID,0,VALID,23.8398,VALID,345,VALID,0,
2009-08-17, 00:04:04,VALID,1004.38,VALID,0,VALID,95.2008,VALID,0,VALID,23.838,VALID,345,VALID,0,
2009-08-17, 00:05:04,VALID,1004.39,VALID,0,VALID,95.2313,VALID,0,VALID,23.8769,VALID,345,VALID,0,
2009-08-17, 00:06:04,VALID,1004.37,VALID,0,VALID,95.2389,VALID,0,VALID,23.9177,VALID,345,VALID,0,
2009-08-17, 00:07:04,VALID,1004.37,VALID,0,VALID,95.2542,VALID,0,VALID,23.9371,VALID,345,VALID,0,
2009-08-17, 00:08:04,VALID,1004.39,VALID,0,VALID,95.2389,VALID,0,VALID,23.9177,VALID,345,VALID,0,
2009-08-17, 00:09:04,VALID,1004.39,VALID,0,VALID,95.2237,VALID,0,VALID,23.8769,VALID,345,VALID,0,
2009-08-17, 00:10:04,VALID,1004.43,VALID,0,VALID,95.2161,VALID,0,VALID,23.8575,VALID,345,VALID,0,
2009-08-17, 00:11:04,VALID,1004.42,VALID,0,VALID,95.2161,VALID,0,VALID,23.8787,VALID,345,VALID,0,
2009-08-17, 00:12:04,VALID,1004.41,VALID,0,VALID,95.2084,VALID,0,VALID,23.8787,VALID,345,VALID,0,
2009-08-17, 00:13:04,VALID,1004.38,VALID,0,VALID,95.2237,VALID,0,VALID,23.9177,VALID,346,VALID,0,
2009-08-17, 00:14:04,VALID,1004.39,VALID,0,VALID,95.2313,VALID,0,VALID,23.9371,VALID,346,VALID,0,
2009-08-17, 00:15:04,VALID,1004.38,VALID,0,VALID,95.2542,VALID,0,VALID,23.9159,VALID,346,VALID,0,
2009-08-17, 00:16:04,VALID,1004.4,VALID,0,VALID,95.2466,VALID,0,VALID,23.9353,VALID,346,VALID,0,
2009-08-17, 00:17:04,VALID,1004.38,VALID,0,VALID,95.2618,VALID,0,VALID,23.9955,VALID,4,VALID,0.14375,
2009-08-17, 00:18:04,VALID,1004.38,VALID,0,VALID,95.2695,VALID,0,VALID,23.9937,VALID,4,VALID,0.537891,
2009-08-17, 00:19:04,VALID,1004.36,VALID,0,VALID,95.2466,VALID,0,VALID,23.9955,VALID,4,VALID,0.225781,
2009-08-17, 00:20:04,VALID,1004.37,VALID,0,VALID,95.2466,VALID,0,VALID,23.9761,VALID,6,VALID,0.365234,
2009-08-17, 00:21:04,VALID,1004.36,VALID,0,VALID,95.2466,VALID,0,VALID,23.9548,VALID,6,VALID,0.2875,
2009-08-17, 00:22:04,VALID,1004.42,VALID,0,VALID,95.2466,VALID,0,VALID,23.9761,VALID,6,VALID,0,
2009-08-17, 00:23:04,VALID,1004.41,VALID,0,VALID,95.2542,VALID,0,VALID,23.9761,VALID,6,VALID,0,
2009-08-17, 00:24:04,VALID,1004.43,VALID,0,VALID,95.2389,VALID,0,VALID,23.9761,VALID,6,VALID,0,
2009-08-17, 00:25:04,VALID,1004.42,VALID,0,VALID,95.2466,VALID,0,VALID,23.9761,VALID,6,VALID,0,
2009-08-17, 00:26:04,VALID,1004.4,VALID,0,VALID,95.2389,VALID,0,VALID,23.9742,VALID,6,VALID,0,
2009-08-17, 00:27:04,VALID,1004.38,VALID,0,VALID,95.2618,VALID,0,VALID,24.0132,VALID,6,VALID,0,
2009-08-17, 00:28:04,VALID,1004.38,VALID,0,VALID,95.2542,VALID,0,VALID,24.0132,VALID,6,VALID,0,
2009-08-17, 00:29:04,VALID,1004.35,VALID,0,VALID,95.2695,VALID,0,VALID,24.0326,VALID,6,VALID,0,
2009-08-17, 00:30:04,VALID,1004.31,VALID,0,VALID,95.2847,VALID,0,VALID,24.0929,VALID,6,VALID,0,
2009-08-17, 00:31:04,VALID,1004.31,VALID,0,VALID,95.2847,VALID,0,VALID,24.0734,VALID,6,VALID,0,
2009-08-17, 00:32:04,VALID,1004.28,VALID,0,VALID,95.2618,VALID,0,VALID,24.0326,VALID,6,VALID,0,
2009-08-17, 00:33:04,VALID,1004.29,VALID,0,VALID,95.2389,VALID,0,VALID,24.0345,VALID,6,VALID,0,
2009-08-17, 00:34:04,VALID,1004.24,VALID,0,VALID,95.2466,VALID,0,VALID,24.015,VALID,6,VALID,0.121484,
2009-08-17, 00:35:04,VALID,1004.22,VALID,0,VALID,95.2237,VALID,0,VALID,24.015,VALID,6,VALID,0.24375,
2009-08-17, 00:36:04,VALID,1004.2,VALID,0,VALID,95.2161,VALID,0,VALID,23.9742,VALID,6,VALID,0.116797,
2009-08-17, 00:37:04,VALID,1004.21,VALID,0,VALID,95.2237,VALID,0,VALID,24.015,VALID,6,VALID,0.189844,
2009-08-17, 00:38:04,VALID,1004.18,VALID,0,VALID,95.2313,VALID,0,VALID,23.9742,VALID,6,VALID,0.119531,
2009-08-17, 00:39:04,VALID,1004.17,VALID,0,VALID,95.2237,VALID,0,VALID,23.9937,VALID,6,VALID,0.0550781,
2009-08-17, 00:40:04,VALID,1004.17,VALID,0,VALID,95.2161,VALID,0,VALID,24.015,VALID,6,VALID,0.00429688,
2009-08-17, 00:41:04,VALID,1004.12,VALID,0,VALID,95.2008,VALID,0,VALID,23.9937,VALID,6,VALID,0,
2009-08-17, 00:42:04,VALID,1004.08,VALID,0,VALID,95.2161,VALID,0,VALID,24.0132,VALID,6,VALID,0.0105469,
2009-08-17, 00:43:04,VALID,1004.1,VALID,0,VALID,95.2084,VALID,0,VALID,24.0132,VALID,6,VALID,0.00234375,
2009-08-17, 00:44:04,VALID,1004.07,VALID,0,VALID,95.2161,VALID,0,VALID,24.0539,VALID,6,VALID,0.0210938,
2009-08-17, 00:45:04,VALID,1004.09,VALID,0,VALID,95.2313,VALID,0,VALID,24.0521,VALID,6,VALID,0.125,
2009-08-17, 00:46:04,VALID,1004.12,VALID,0,VALID,95.2161,VALID,0,VALID,24.0521,VALID,6,VALID,0.242578,
2009-08-17, 00:47:04,VALID,1004.1,VALID,0,VALID,95.2389,VALID,0,VALID,24.0716,VALID,6,VALID,0.239453,
2009-08-17, 00:48:04,VALID,1004.13,VALID,0,VALID,95.2466,VALID,0,VALID,24.0734,VALID,6,VALID,0.210938,
2009-08-17, 00:49:04,VALID,1004.12,VALID,0,VALID,95.2389,VALID,0,VALID,24.0521,VALID,6,VALID,0.235547,
2009-08-17, 00:50:04,VALID,1004.08,VALID,0,VALID,95.2237,VALID,0,VALID,24.0734,VALID,6,VALID,0.301562,
2009-08-17, 00:51:04,VALID,1004.06,VALID,0,VALID,95.2466,VALID,0,VALID,24.0326,VALID,6,VALID,0.281641,
2009-08-17, 00:52:04,VALID,1004.03,VALID,0,VALID,95.2161,VALID,0,VALID,24.0539,VALID,6,VALID,0.3125,
2009-08-17, 00:53:04,VALID,1004,VALID,0,VALID,95.2313,VALID,0,VALID,24.0326,VALID,6,VALID,0,
2009-08-17, 00:54:04,VALID,1004.01,VALID,0,VALID,95.2237,VALID,0,VALID,24.0734,VALID,6,VALID,0,
2009-08-17, 00:55:04,VALID,1004.01,VALID,0,VALID,95.2466,VALID,0,VALID,24.0521,VALID,6,VALID,0,
2009-08-17, 00:56:04,VALID,1004,VALID,0,VALID,95.2466,VALID,0,VALID,24.0929,VALID,6,VALID,0,
2009-08-17, 00:57:04,VALID,1004.02,VALID,0,VALID,95.2542,VALID,0,VALID,24.1105,VALID,6,VALID,0,
2009-08-17, 00:58:04,VALID,1004.04,VALID,0,VALID,95.2695,VALID,0,VALID,24.13,VALID,6,VALID,0,
2009-08-17, 00:59:04,VALID,1004.06,VALID,0,VALID,95.2695,VALID,0.100563,VALID,24.13,VALID,6,VALID,0,
2009-08-17, 01:00:04,VALID,1004.09,VALID,0,VALID,95.2389,VALID,0,VALID,24.1105,VALID,6,VALID,0,
2009-08-17, 01:01:04,VALID,1004.1,VALID,0,VALID,95.2542,VALID,0,VALID,24.1318,VALID,6,VALID,0,
2009-08-17, 01:02:04,VALID,1004.1,VALID,0,VALID,95.2542,VALID,0,VALID,24.1513,VALID,6,VALID,0,
2009-08-17, 01:03:04,VALID,1004.13,VALID,0,VALID,95.2389,VALID,0,VALID,24.1707,VALID,25,VALID,0,
2009-08-17, 01:04:04,VALID,1004.09,VALID,0,VALID,95.2389,VALID,0,VALID,24.1689,VALID,25,VALID,0,
2009-08-17, 01:05:04,VALID,1004.06,VALID,0,VALID,95.2695,VALID,0,VALID,24.2291,VALID,25,VALID,0,
2009-08-17, 01:06:04,VALID,1004,VALID,0,VALID,95.2618,VALID,0,VALID,24.2468,VALID,25,VALID,0,
2009-08-17, 01:07:04,VALID,1003.99,VALID,0,VALID,95.2695,VALID,0,VALID,24.2662,VALID,24,VALID,0,
2009-08-17, 01:08:04,VALID,1003.97,VALID,0,VALID,95.2618,VALID,0,VALID,24.2468,VALID,18,VALID,0.0246094,
2009-08-17, 01:09:04,VALID,1003.94,VALID,0,VALID,95.2542,VALID,0,VALID,24.307,VALID,7,VALID,0.287109,
2009-08-17, 01:10:04,VALID,1003.99,VALID,0,VALID,95.2542,VALID,0,VALID,24.2662,VALID,7,VALID,0.449609,
2009-08-17, 01:11:04,VALID,1004.01,VALID,0,VALID,95.2466,VALID,0,VALID,24.3052,VALID,9,VALID,0.782422,
2009-08-17, 01:12:04,VALID,1004.04,VALID,0.5,VALID,95.2542,VALID,0,VALID,24.3636,VALID,13,VALID,1.05898,
2009-08-17, 01:13:04,VALID,1004.01,VALID,0.5,VALID,95.2695,VALID,0,VALID,24.4414,VALID,358,VALID,1.15352,
2009-08-17, 01:14:04,VALID,1004.03,VALID,0.5,VALID,95.2923,VALID,0,VALID,24.5406,VALID,360,VALID,1.57383,
2009-08-17, 01:15:04,VALID,1004.03,VALID,0.5,VALID,95.3229,VALID,0,VALID,24.638,VALID,359,VALID,1.83008,
2009-08-17, 01:16:04,VALID,1004.04,VALID,0.5,VALID,95.3152,VALID,0,VALID,24.5972,VALID,14,VALID,1.67578,
2009-08-17, 01:17:04,VALID,1004.09,VALID,0.5,VALID,95.3,VALID,0,VALID,24.5796,VALID,31,VALID,1.22617,
2009-08-17, 01:18:04,VALID,1004.1,VALID,0,VALID,95.2542,VALID,0,VALID,24.5212,VALID,53,VALID,1.33242,
2009-08-17, 01:19:04,VALID,1004.14,VALID,0,VALID,95.2084,VALID,0,VALID,24.4628,VALID,77,VALID,1.75508,
2009-08-17, 01:20:04,VALID,1004.23,VALID,0.5,VALID,95.0864,VALID,0,VALID,24.3459,VALID,95,VALID,0.882813,
2009-08-17, 01:21:04,VALID,1004.3,VALID,0,VALID,94.9262,VALID,0.100563,VALID,24.2662,VALID,130,VALID,1.9082,
2009-08-17, 01:22:04,VALID,1004.32,VALID,0,VALID,94.7278,VALID,0,VALID,24.2486,VALID,116,VALID,1.35156,
2009-08-17, 01:23:04,VALID,1004.32,VALID,0,VALID,94.4989,VALID,0,VALID,24.2857,VALID,119,VALID,1.6168,
2009-08-17, 01:24:04,VALID,1004.34,VALID,0,VALID,94.3006,VALID,0,VALID,24.307,VALID,101,VALID,1.55352,
2009-08-17, 01:25:04,VALID,1004.37,VALID,0,VALID,94.0641,VALID,0,VALID,24.2662,VALID,93,VALID,0.911719,
2009-08-17, 01:26:04,VALID,1004.36,VALID,0,VALID,93.9115,VALID,0,VALID,24.2291,VALID,105,VALID,1.13594,
2009-08-17, 01:27:04,VALID,1004.33,VALID,0,VALID,93.6369,VALID,0,VALID,24.13,VALID,72,VALID,1.72578,
2009-08-17, 01:28:04,VALID,1004.26,VALID,0,VALID,93.4614,VALID,0,VALID,24.0716,VALID,83,VALID,1.50742,
2009-08-17, 01:29:04,VALID,1004.19,VALID,0,VALID,93.5682,VALID,0,VALID,24.0345,VALID,42,VALID,0.154297,
2009-08-17, 01:30:04,VALID,1004.15,VALID,0,VALID,93.5377,VALID,0,VALID,23.9955,VALID,75,VALID,1.18398,
2009-08-17, 01:31:04,VALID,1004.11,VALID,0,VALID,93.6674,VALID,0,VALID,23.9548,VALID,53,VALID,0.184375,
2009-08-17, 01:32:04,VALID,1004.11,VALID,0,VALID,93.8352,VALID,0,VALID,23.9159,VALID,20,VALID,1.53672,
2009-08-17, 01:33:04,VALID,1003.99,VALID,1.5,VALID,93.8276,VALID,0,VALID,23.8769,VALID,14,VALID,1.59063,
2009-08-17, 01:34:04,VALID,1003.91,VALID,0.5,VALID,93.9268,VALID,0,VALID,23.8203,VALID,356,VALID,0.945703,
2009-08-17, 01:35:04,VALID,1003.95,VALID,0.5,VALID,94.0183,VALID,0.100563,VALID,23.7407,VALID,21,VALID,0.958594,
2009-08-17, 01:36:04,VALID,1003.96,VALID,0,VALID,94.0031,VALID,0,VALID,23.6841,VALID,38,VALID,1.15859,
2009-08-17, 01:37:04,VALID,1003.93,VALID,0,VALID,94.0641,VALID,0,VALID,23.6257,VALID,58,VALID,1.2582,
2009-08-17, 01:38:04,VALID,1003.91,VALID,0,VALID,94.1633,VALID,0,VALID,23.6062,VALID,26,VALID,0.509766,
2009-08-17, 01:39:04,VALID,1003.94,VALID,0,VALID,94.2624,VALID,0,VALID,23.6257,VALID,79,VALID,0.660156,
2009-08-17, 01:40:04,VALID,1003.98,VALID,0,VALID,94.3464,VALID,0,VALID,23.6257,VALID,54,VALID,0.784766,
2009-08-17, 01:41:04,VALID,1003.99,VALID,0,VALID,94.415,VALID,0,VALID,23.585,VALID,55,VALID,0.433594,
2009-08-17, 01:42:04,VALID,1004.02,VALID,0.5,VALID,94.4837,VALID,0.100563,VALID,23.6257,VALID,58,VALID,0.502734,
2009-08-17, 01:43:04,VALID,1003.99,VALID,0,VALID,94.5295,VALID,0,VALID,23.585,VALID,49,VALID,0.662891,
2009-08-17, 01:44:04,VALID,1003.92,VALID,0,VALID,94.6057,VALID,0,VALID,23.5868,VALID,40,VALID,0.364453,
2009-08-17, 01:45:04,VALID,1003.87,VALID,0,VALID,94.6668,VALID,0,VALID,23.5868,VALID,10,VALID,0.264844,
2009-08-17, 01:46:04,VALID,1003.79,VALID,0,VALID,94.7431,VALID,0,VALID,23.6044,VALID,10,VALID,0.178516,
2009-08-17, 01:47:04,VALID,1003.72,VALID,0,VALID,94.827,VALID,0,VALID,23.6062,VALID,10,VALID,0.0371094,
2009-08-17, 01:48:04,VALID,1003.72,VALID,0,VALID,94.8422,VALID,0,VALID,23.6257,VALID,140,VALID,0.715234,
2009-08-17, 01:49:04,VALID,1003.68,VALID,0.5,VALID,94.9109,VALID,0,VALID,23.6044,VALID,140,VALID,0.142188,
2009-08-17, 01:50:04,VALID,1003.71,VALID,0,VALID,94.9567,VALID,0,VALID,23.6452,VALID,133,VALID,0.298438,
2009-08-17, 01:51:04,VALID,1003.7,VALID,0,VALID,94.9796,VALID,0,VALID,23.6257,VALID,83,VALID,0.346484,
2009-08-17, 01:52:04,VALID,1003.66,VALID,0,VALID,95.0024,VALID,0.100563,VALID,23.6044,VALID,39,VALID,0.179297,
2009-08-17, 01:53:04,VALID,1003.62,VALID,0,VALID,95.0558,VALID,0,VALID,23.6044,VALID,39,VALID,0.219922,
2009-08-17, 01:54:04,VALID,1003.61,VALID,0,VALID,95.0482,VALID,0,VALID,23.6257,VALID,39,VALID,0,
2009-08-17, 01:55:04,VALID,1003.63,VALID,0,VALID,95.0635,VALID,0,VALID,23.585,VALID,39,VALID,0.0015625,
2009-08-17, 01:56:04,VALID,1003.62,VALID,0,VALID,95.1016,VALID,0,VALID,23.5868,VALID,39,VALID,0.363672,
2009-08-17, 01:57:04,VALID,1003.61,VALID,0,VALID,95.1321,VALID,0,VALID,23.6062,VALID,39,VALID,0.342187,
2009-08-17, 01:58:04,VALID,1003.62,VALID,0,VALID,95.1627,VALID,0,VALID,23.6062,VALID,39,VALID,0.155078,
2009-08-17, 01:59:04,VALID,1003.59,VALID,0,VALID,95.1779,VALID,0,VALID,23.585,VALID,39,VALID,0.375781,
2009-08-17, 02:00:04,VALID,1003.58,VALID,0,VALID,95.2084,VALID,0,VALID,23.585,VALID,39,VALID,0.117969,
2009-08-17, 02:01:04,VALID,1003.57,VALID,0,VALID,95.2389,VALID,0,VALID,23.6257,VALID,39,VALID,0.236328,
2009-08-17, 02:02:04,VALID,1003.55,VALID,0,VALID,95.2618,VALID,0,VALID,23.6257,VALID,30,VALID,0.454688,
2009-08-17, 02:03:04,VALID,1003.6,VALID,0,VALID,95.2923,VALID,0,VALID,23.6257,VALID,32,VALID,0.835938,
2009-08-17, 02:04:04,VALID,1003.64,VALID,0,VALID,95.3152,VALID,0,VALID,23.6257,VALID,28,VALID,0.702734,
2009-08-17, 02:05:04,VALID,1003.65,VALID,0,VALID,95.3229,VALID,0,VALID,23.6257,VALID,29,VALID,0.357812,
2009-08-17, 02:06:04,VALID,1003.68,VALID,0.5,VALID,95.3457,VALID,0,VALID,23.6044,VALID,29,VALID,0.518359,
2009-08-17, 02:07:04,VALID,1003.69,VALID,0,VALID,95.3686,VALID,0,VALID,23.6257,VALID,28,VALID,0.815234,
2009-08-17, 02:08:04,VALID,1003.69,VALID,0,VALID,95.3686,VALID,0,VALID,23.6452,VALID,17,VALID,0.895312,
2009-08-17, 02:09:04,VALID,1003.64,VALID,0,VALID,95.3991,VALID,0,VALID,23.6239,VALID,4,VALID,0.732031,
2009-08-17, 02:10:04,VALID,1003.57,VALID,0,VALID,95.3991,VALID,0,VALID,23.6239,VALID,359,VALID,0.389062,
2009-08-17, 02:11:04,VALID,1003.56,VALID,0,VALID,95.4068,VALID,0,VALID,23.6646,VALID,359,VALID,0.605078,
2009-08-17, 02:12:04,VALID,1003.53,VALID,0,VALID,95.4678,VALID,0,VALID,23.6646,VALID,359,VALID,0.540234,
2009-08-17, 02:13:04,VALID,1003.51,VALID,0,VALID,95.4602,VALID,0,VALID,23.6646,VALID,36,VALID,0.507422,
2009-08-17, 02:14:04,VALID,1003.53,VALID,0,VALID,95.4602,VALID,0,VALID,23.723,VALID,69,VALID,0.589844,
2009-08-17, 02:15:04,VALID,1003.58,VALID,0,VALID,95.4678,VALID,0,VALID,23.7017,VALID,78,VALID,0.880078,
2009-08-17, 02:16:04,VALID,1003.65,VALID,0,VALID,95.4602,VALID,0,VALID,23.7619,VALID,104,VALID,1.41641,
2009-08-17, 02:17:04,VALID,1003.64,VALID,0,VALID,95.4983,VALID,0,VALID,23.7425,VALID,77,VALID,1.05547,
2009-08-17, 02:18:04,VALID,1003.61,VALID,0,VALID,95.4678,VALID,0,VALID,23.723,VALID,54,VALID,0.577344,
2009-08-17, 02:19:04,VALID,1003.55,VALID,0.5,VALID,95.4754,VALID,0,VALID,23.7425,VALID,25,VALID,0.708203,
2009-08-17, 02:20:04,VALID,1003.52,VALID,0,VALID,95.4602,VALID,0,VALID,23.7619,VALID,353,VALID,0.735547,
2009-08-17, 02:21:04,VALID,1003.49,VALID,0,VALID,95.4373,VALID,0,VALID,23.7035,VALID,24,VALID,1.93906,
2009-08-17, 02:22:04,VALID,1003.49,VALID,0,VALID,95.4297,VALID,0,VALID,23.7035,VALID,75,VALID,0.617188,
2009-08-17, 02:23:04,VALID,1003.52,VALID,0,VALID,95.4068,VALID,0,VALID,23.7017,VALID,61,VALID,0.434766,
2009-08-17, 02:24:04,VALID,1003.51,VALID,0,VALID,95.3839,VALID,0,VALID,23.6841,VALID,70,VALID,0.516406,
2009-08-17, 02:25:04,VALID,1003.49,VALID,0,VALID,95.3763,VALID,0,VALID,23.6646,VALID,52,VALID,0.533203,
2009-08-17, 02:26:04,VALID,1003.42,VALID,0.5,VALID,95.3381,VALID,0,VALID,23.6452,VALID,21,VALID,1.40078,
2009-08-17, 02:27:04,VALID,1003.41,VALID,0,VALID,95.2923,VALID,0,VALID,23.6044,VALID,50,VALID,0.65,
2009-08-17, 02:28:04,VALID,1003.38,VALID,0,VALID,95.3,VALID,0,VALID,23.6257,VALID,40,VALID,1.23281,
2009-08-17, 02:29:04,VALID,1003.38,VALID,0,VALID,95.2847,VALID,0,VALID,23.6044,VALID,50,VALID,0.601953,
2009-08-17, 02:30:04,VALID,1003.39,VALID,0,VALID,95.2847,VALID,0,VALID,23.585,VALID,27,VALID,0.857422,
2009-08-17, 02:31:04,VALID,1003.39,VALID,0,VALID,95.2542,VALID,0,VALID,23.585,VALID,30,VALID,0.69375,
2009-08-17, 02:32:04,VALID,1003.45,VALID,0,VALID,95.2618,VALID,0,VALID,23.6257,VALID,22,VALID,0.441797,
2009-08-17, 02:33:04,VALID,1003.46,VALID,0,VALID,95.2313,VALID,0.100563,VALID,23.6257,VALID,58,VALID,0.3875,
2009-08-17, 02:34:04,VALID,1003.5,VALID,0,VALID,95.2466,VALID,0,VALID,23.6452,VALID,26,VALID,0.401953,
2009-08-17, 02:35:04,VALID,1003.5,VALID,0,VALID,95.2313,VALID,0,VALID,23.6239,VALID,53,VALID,0.727344,
2009-08-17, 02:36:04,VALID,1003.49,VALID,0,VALID,95.2466,VALID,0,VALID,23.6841,VALID,67,VALID,1.18789,
2009-08-17, 02:37:04,VALID,1003.46,VALID,0,VALID,95.2466,VALID,0,VALID,23.723,VALID,38,VALID,0.943359,
2009-08-17, 02:38:04,VALID,1003.45,VALID,0,VALID,95.2466,VALID,0,VALID,23.7407,VALID,23,VALID,0.282422,
2009-08-17, 02:39:04,VALID,1003.39,VALID,0,VALID,95.2389,VALID,0,VALID,23.7407,VALID,31,VALID,0.563672,
2009-08-17, 02:40:04,VALID,1003.35,VALID,0,VALID,95.2313,VALID,0,VALID,23.7425,VALID,25,VALID,0.103906,
2009-08-17, 02:41:04,VALID,1003.32,VALID,0,VALID,95.2313,VALID,0,VALID,23.7619,VALID,27,VALID,0.595312,
2009-08-17, 02:42:04,VALID,1003.3,VALID,0,VALID,95.2161,VALID,0,VALID,23.7601,VALID,27,VALID,0.153516,
2009-08-17, 02:43:04,VALID,1003.27,VALID,0,VALID,95.1932,VALID,0,VALID,23.7619,VALID,27,VALID,0.211328,
2009-08-17, 02:44:04,VALID,1003.23,VALID,0,VALID,95.2084,VALID,0,VALID,23.7619,VALID,27,VALID,0.275,
2009-08-17, 02:45:04,VALID,1003.21,VALID,0,VALID,95.1855,VALID,0,VALID,23.7017,VALID,27,VALID,0.158984,
2009-08-17, 02:46:04,VALID,1003.22,VALID,0,VALID,95.1932,VALID,0,VALID,23.7425,VALID,28,VALID,0.046875,
2009-08-17, 02:47:04,VALID,1003.22,VALID,0,VALID,95.1932,VALID,0,VALID,23.7212,VALID,27,VALID,0.397266,
2009-08-17, 02:48:04,VALID,1003.23,VALID,0,VALID,95.2084,VALID,0,VALID,23.7035,VALID,28,VALID,0.252734,
2009-08-17, 02:49:04,VALID,1003.22,VALID,0,VALID,95.2008,VALID,0,VALID,23.6823,VALID,28,VALID,0.253906,
2009-08-17, 02:50:04,VALID,1003.2,VALID,0,VALID,95.2161,VALID,0,VALID,23.6823,VALID,28,VALID,0.0339844,
2009-08-17, 02:51:04,VALID,1003.19,VALID,0,VALID,95.2084,VALID,0,VALID,23.6628,VALID,28,VALID,0.0078125,
2009-08-17, 02:52:04,VALID,1003.17,VALID,0,VALID,95.2161,VALID,0,VALID,23.7035,VALID,28,VALID,0.401563,
2009-08-17, 02:53:04,VALID,1003.15,VALID,0,VALID,95.2389,VALID,0,VALID,23.6823,VALID,27,VALID,0.431641,
2009-08-17, 02:54:04,VALID,1003.14,VALID,0,VALID,95.2466,VALID,0,VALID,23.7035,VALID,21,VALID,0.501172,
2009-08-17, 02:55:04,VALID,1003.16,VALID,0,VALID,95.2695,VALID,0,VALID,23.7035,VALID,21,VALID,0,
2009-08-17, 02:56:04,VALID,1003.15,VALID,0,VALID,95.2695,VALID,0,VALID,23.7035,VALID,21,VALID,0.0371094,
2009-08-17, 02:57:04,VALID,1003.19,VALID,0,VALID,95.3,VALID,0,VALID,23.723,VALID,21,VALID,0.5,
2009-08-17, 02:58:04,VALID,1003.19,VALID,0,VALID,95.3076,VALID,0,VALID,23.7017,VALID,21,VALID,0.692187,
2009-08-17, 02:59:04,VALID,1003.21,VALID,0,VALID,95.3076,VALID,0,VALID,23.6823,VALID,290,VALID,0.518359,
2009-08-17, 03:00:04,VALID,1003.2,VALID,0,VALID,95.3229,VALID,0,VALID,23.6628,VALID,271,VALID,0.046875,
2009-08-17, 03:01:04,VALID,1003.19,VALID,0,VALID,95.3,VALID,0,VALID,23.6628,VALID,229,VALID,0.755078,
2009-08-17, 03:02:04,VALID,1003.15,VALID,0,VALID,95.3305,VALID,0,VALID,23.6434,VALID,229,VALID,0.416406,
2009-08-17, 03:03:04,VALID,1003.12,VALID,0,VALID,95.3686,VALID,0,VALID,23.6628,VALID,229,VALID,0.0914062,
2009-08-17, 03:04:04,VALID,1003.07,VALID,0,VALID,95.3534,VALID,0,VALID,23.6628,VALID,229,VALID,0.0304688,
2009-08-17, 03:05:04,VALID,1003.06,VALID,0,VALID,95.361,VALID,0,VALID,23.6628,VALID,229,VALID,0.0222656,
2009-08-17, 03:06:04,VALID,1003.05,VALID,0,VALID,95.3534,VALID,0,VALID,23.6434,VALID,229,VALID,0,
2009-08-17, 03:07:04,VALID,1003.01,VALID,0,VALID,95.3763,VALID,0,VALID,23.6434,VALID,229,VALID,0,
2009-08-17, 03:08:04,VALID,1002.99,VALID,0,VALID,95.3763,VALID,0.100563,VALID,23.6434,VALID,229,VALID,0.514063,
2009-08-17, 03:09:04,VALID,1003.02,VALID,0,VALID,95.3915,VALID,0,VALID,23.6434,VALID,2,VALID,0.732422,
2009-08-17, 03:10:04,VALID,1002.99,VALID,0,VALID,95.3763,VALID,0,VALID,23.6044,VALID,46,VALID,0.648828,
2009-08-17, 03:11:04,VALID,1002.97,VALID,0,VALID,95.3991,VALID,0,VALID,23.6044,VALID,38,VALID,0.563672,
2009-08-17, 03:12:04,VALID,1002.96,VALID,0,VALID,95.3991,VALID,0,VALID,23.6257,VALID,38,VALID,0.450781,
2009-08-17, 03:13:05,VALID,1002.96,VALID,0,VALID,95.4144,VALID,0,VALID,23.6239,VALID,38,VALID,0.276953,
2009-08-17, 03:14:05,VALID,1002.97,VALID,0,VALID,95.4144,VALID,0,VALID,23.6044,VALID,38,VALID,0.314453,
2009-08-17, 03:15:05,VALID,1002.98,VALID,0,VALID,95.4373,VALID,0,VALID,23.585,VALID,38,VALID,0.228125,
2009-08-17, 03:16:05,VALID,1002.93,VALID,0,VALID,95.4602,VALID,0,VALID,23.585,VALID,38,VALID,0.344922,
2009-08-17, 03:17:05,VALID,1002.97,VALID,0,VALID,95.4297,VALID,0,VALID,23.6044,VALID,38,VALID,0.337109,
2009-08-17, 03:18:05,VALID,1002.94,VALID,0,VALID,95.4678,VALID,0,VALID,23.585,VALID,10,VALID,0.643359,
2009-08-17, 03:19:05,VALID,1002.94,VALID,0,VALID,95.4754,VALID,0,VALID,23.6257,VALID,8,VALID,0.503516,
2009-08-17, 03:20:05,VALID,1002.9,VALID,0,VALID,95.4754,VALID,0,VALID,23.6257,VALID,8,VALID,0.428516,
2009-08-17, 03:21:05,VALID,1002.9,VALID,0,VALID,95.4983,VALID,0,VALID,23.6257,VALID,1,VALID,0.505469,
2009-08-17, 03:22:05,VALID,1002.89,VALID,0,VALID,95.4983,VALID,0,VALID,23.6257,VALID,354,VALID,0.425391,
2009-08-17, 03:23:05,VALID,1002.88,VALID,0,VALID,95.4907,VALID,0,VALID,23.6257,VALID,354,VALID,0.532031,
2009-08-17, 03:24:05,VALID,1002.87,VALID,0,VALID,95.5212,VALID,0,VALID,23.6257,VALID,354,VALID,0.639844,
2009-08-17, 03:25:05,VALID,1002.85,VALID,0,VALID,95.5212,VALID,0,VALID,23.6257,VALID,349,VALID,0.654297,
2009-08-17, 03:26:05,VALID,1002.86,VALID,0,VALID,95.5288,VALID,0,VALID,23.6257,VALID,351,VALID,0.617578,
2009-08-17, 03:27:05,VALID,1002.84,VALID,0,VALID,95.5365,VALID,0,VALID,23.6257,VALID,359,VALID,0.903906,
2009-08-17, 03:28:05,VALID,1002.85,VALID,0,VALID,95.5441,VALID,0,VALID,23.6452,VALID,356,VALID,1.04062,
2009-08-17, 03:29:05,VALID,1002.83,VALID,0,VALID,95.5517,VALID,0,VALID,23.6257,VALID,351,VALID,0.631641,
2009-08-17, 03:30:05,VALID,1002.82,VALID,0,VALID,95.5594,VALID,0,VALID,23.6257,VALID,351,VALID,0.617578,
2009-08-17, 03:31:05,VALID,1002.82,VALID,0,VALID,95.567,VALID,0,VALID,23.6257,VALID,355,VALID,0.0714844,
2009-08-17, 03:32:05,VALID,1002.8,VALID,0,VALID,95.5899,VALID,0,VALID,23.6257,VALID,355,VALID,0.00117188,
2009-08-17, 03:33:05,VALID,1002.83,VALID,0,VALID,95.5822,VALID,0,VALID,23.6452,VALID,355,VALID,0.0101562,
2009-08-17, 03:34:05,VALID,1002.85,VALID,0,VALID,95.5975,VALID,0,VALID,23.6452,VALID,353,VALID,0.428906,
2009-08-17, 03:35:05,VALID,1002.88,VALID,0,VALID,95.5746,VALID,0,VALID,23.6452,VALID,263,VALID,0.480859,
2009-08-17, 03:36:05,VALID,1002.91,VALID,0,VALID,95.5975,VALID,0,VALID,23.6239,VALID,360,VALID,0.60625,
2009-08-17, 03:37:05,VALID,1002.96,VALID,0,VALID,95.5975,VALID,0,VALID,23.6044,VALID,3,VALID,0.374609,
2009-08-17, 03:38:05,VALID,1002.97,VALID,0,VALID,95.5975,VALID,0,VALID,23.6257,VALID,3,VALID,0.273047,
2009-08-17, 03:39:05,VALID,1002.99,VALID,0,VALID,95.6128,VALID,0,VALID,23.585,VALID,7,VALID,0,
2009-08-17, 03:40:05,VALID,1003.02,VALID,0,VALID,95.5975,VALID,0,VALID,23.6044,VALID,7,VALID,0,
2009-08-17, 03:41:05,VALID,1003.05,VALID,0,VALID,95.6128,VALID,0,VALID,23.5655,VALID,7,VALID,0,
2009-08-17, 03:42:05,VALID,1003.08,VALID,0,VALID,95.6128,VALID,0,VALID,23.5655,VALID,7,VALID,0,
2009-08-17, 03:43:05,VALID,1003.07,VALID,0,VALID,95.6204,VALID,0,VALID,23.5655,VALID,7,VALID,0,
2009-08-17, 03:44:05,VALID,1003.09,VALID,0,VALID,95.6051,VALID,0,VALID,23.5655,VALID,7,VALID,0,
2009-08-17, 03:45:05,VALID,1003.04,VALID,0,VALID,95.6433,VALID,0,VALID,23.5655,VALID,11,VALID,0,
2009-08-17, 03:46:05,VALID,1003.05,VALID,0,VALID,95.6356,VALID,0,VALID,23.6257,VALID,50,VALID,0,
2009-08-17, 03:47:05,VALID,1003.05,VALID,0,VALID,95.6356,VALID,0,VALID,23.6044,VALID,54,VALID,0,
2009-08-17, 03:48:05,VALID,1003.04,VALID,0,VALID,95.6433,VALID,0,VALID,23.6452,VALID,57,VALID,0.247656,
2009-08-17, 03:49:05,VALID,1003.01,VALID,0,VALID,95.6433,VALID,0,VALID,23.6452,VALID,57,VALID,0.214844,